星链-3320 (STARLINK-3320 )

导读 | 星芒AI

STARLINK-3320 是 SpaceX Starlink 项目中的一颗低轨通信卫星,属于第 11 批部署的星链卫星群。该卫星于 2023 年发射,旨在为全球用户提供高速互联网服务。它运行在约 550 公里的轨道高度,采用先进的相控阵天线和激光通信技术,以提高连接速度和稳定性。STARLINK-3320 与其他星链卫星协同工作,支持偏远地区的网络覆盖,推动全球互联网普及。

基本信息
目录编号:
50839
目录名称:
STARLINK-3320
国际标识:
2022-001AN
轨道中心:
EARTH
卫星名称:
星链-3320
卫星全名:
星链-3320 (STARLINK-3320 )
卫星状态:
在轨 (已飞行1398 天)
发射日期:
2022-01-06 UTC
国别 :
美国 (US)
星等 :
--
轨道信息
数据来源 国际轨道数据 AOE轨道数据
星历时间 2025-11-03T19:54:20+0800
1天前
查看轨道信息
2025-11-02T08:00:00+0800
2天前
查看轨道信息
半长轴 6917.903km 6917.848km
偏心率 0.0001406 0.0001378
轨道倾角 53.218° 53.216°
近地点辐角 87.541° 69.439°
升交点赤经 25.624° 32.341°
平近点角 272.574° 79.863°
近地点 538.795km 538.759km
远地点 540.741km 540.667km
周期 95.438分钟 95.437分钟
每日圈数 15.088329 15.088507
详细信息
固有亮度:
5
最大亮度:
2.5
卫星平台:
Starlink v1.5
覆盖范围:
全球
运营商:
太空探索技术公司
运营商所在国:
美国
制造商(研发单位):
太空探索技术公司
制造商所在国:
美国
使用方式:
暂无
卫星简介
星链(Starlink)计划是由太空探索技术公司(SpaceX)提出的一个巨型低轨卫星互联网星座项目,计划在2019年至2024年间在太空搭建由约1.2万颗卫星组成的“星链”网络,其中1584颗将部署在地球上空550千米处的近地轨道,并从2020年开始工作。该卫星仍在工作。
2D轨道图
3D轨道图
轨道高度分析图
轨道倾角分析图
轨道综合分析图
查看轨道综合分析图